This demonstration page uses our WeatherBlox Daily Observations layout. Learn more.

Left ArrowRight Arrow

39.95238, -75.16362

Hourly Observations for May 16, 2015

Temp ( °F °C ) Dew Point ( °F °C ) Humidity (%) Winds ( mph kmh ) Pressure ( in mb ) Visibility ( mi km ) Precip ( " mm )
12:54 am 00:54 Cloudy 63 17.2 50 10 63 63 S 6 9 30.22 1023 10 16 0.00 0.00
1:54 am 01:54 Mostly Cloudy 63 17.2 51 10.6 65 65 S 9 15 30.20 1023 10 16 0.00 0.00
2:54 am 02:54 Partly Cloudy 62 16.7 52 11.1 70 70 SSW 7 11 30.18 1022 10 16 0.00 0.00
3:54 am 03:54 Mostly Clear 61 16.1 53 11.7 75 75 S 6 9 30.17 1022 10 16 0.00 0.00
4:54 am 04:54 Partly Cloudy 60 15.6 53 11.7 78 78 SE 3 6 30.16 1022 10 16 0.00 0.00
5:54 am 05:54 Partly Cloudy 59 15 54 12.2 83 83 Calm 30.16 1021 10 16 0.00 0.00
6:54 am 06:54 Partly Cloudy 61 16.1 55 12.8 81 81 S 3 6 30.18 1022 10 16 0.00 0.00
7:54 am 07:54 Mostly Cloudy 64 17.8 56 13.3 75 75 S 6 9 30.19 1022 10 16 0.00 0.00
8:54 am 08:54 Mostly Cloudy 67 19.4 58 14.4 73 73 SSW 8 13 30.18 1022 10 16 0.00 0.00
9:54 am 09:54 Mostly Cloudy 70 21.1 59 15 68 68 WSW 8 13 30.18 1022 10 16 0.00 0.00
10:54 am 10:54 Mostly Cloudy 74 23.3 61 16.1 64 64 VRB 5 7 30.17 1022 10 16 0.00 0.00
11:54 am 11:54 Mostly Cloudy 77 25 61 16.1 58 58 SW 9 15 30.17 1022 10 16 0.00 0.00
12:54 pm 12:54 Mostly Cloudy 80 26.7 62 16.7 54 54 WSW 10 17 30.15 1021 10 16 0.00 0.00
1:54 pm 13:54 Cloudy 81 27.2 62 16.7 53 53 SW 8 13 30.12 1020 10 16 0.00 0.00
2:54 pm 14:54 Cloudy 84 28.9 63 17.2 49 49 SW 9 15 30.10 1019 10 16 0.00 0.00
3:54 pm 15:54 Cloudy 86 30 63 17.2 46 46 WSW 13 20 30.08 1019 10 16 0.00 0.00
4:54 pm 16:54 Cloudy 86 30 63 17.2 46 46 SW 13 20 30.08 1019 10 16 0.00 0.00
5:54 pm 17:54 Cloudy 84 28.9 63 17.2 49 49 SW 10 17 30.08 1019 10 16 0.00 0.00
6:54 pm 18:54 Cloudy 82 27.8 64 17.8 55 55 SSW 7 11 30.09 1019 10 16 0.00 0.00
7:54 pm 19:54 Cloudy 80 26.7 64 17.8 58 58 SW 7 11 30.11 1020 10 16 0.00 0.03
8:06 pm 20:06 Cloudy with Thunderstorms 81 27 64 18 58 58 W 13 20 30.12 1020 10 16 0.00 0.00
8:15 pm 20:15 Windy with Storms Likely 77 25 67 19.4 71 71 W 21 33 30.15 1021 5 8 0.00 0.03
8:18 pm 20:18 Windy with Storms Likely 76 24.4 68 20 77 77 W 24 39 30.15 1021 3 5 0.00 0.03
8:21 pm 20:21 Windy with Storms Likely 74 23.3 68 20 82 82 W 26 43 30.15 1021 2 3 0.01 0.25
8:27 pm 20:27 Cloudy with Strong Thunderstorms 72 22.2 68 20 87 87 WNW 15 24 30.15 1021 2 2 0.09 2.29
8:36 pm 20:36 Cloudy with Thunderstorms 72 22.2 68 20 87 87 WNW 13 20 30.15 1021 4 6 0.30 7.62
8:43 pm 20:43 Cloudy with Thunderstorms 72 22.2 68 20 87 87 W 10 17 30.15 1021 6 10 0.32 8.13
8:52 pm 20:52 Cloudy with Light Rain 73 23 66 19 78 78 W 6 9 30.15 1021 10 16 0.00 0.00
8:54 pm 20:54 Cloudy with Light Rain 73 22.8 67 19.4 81 81 WSW 6 9 30.14 1021 10 16 0.33 8.38
9:54 pm 21:54 Cloudy 72 22.2 67 19.4 84 84 SW 5 7 30.14 1021 10 16 0.00 0.03
10:54 pm 22:54 Cloudy 71 21.7 67 19.4 87 87 SSW 8 13 30.15 1021 10 16 0.00 0.00
11:54 pm 23:54 Cloudy 71 21.7 66 18.9 84 84 WSW 3 6 30.15 1021 10 16 0.00 0.00

Powered by AerisWeather